TimePST,TemperatureF,Dew PointF,Humidity,Sea Level PressureIn,VisibilityMPH,Wind Direction,Wind SpeedMPH,Gust SpeedMPH,PrecipitationIn,Events,Conditions,WindDirDegrees,DateUTC
12:55 AM,43.0,39.0,86,30.27,10.0,ESE,6.9,-,N/A,,Clear,110,2013-02-02 08:55:00
1:55 AM,42.1,37.9,85,30.26,10.0,East,9.2,-,N/A,,Clear,80,2013-02-02 09:55:00
2:55 AM,43.0,39.0,86,30.26,10.0,ENE,9.2,-,N/A,,Clear,70,2013-02-02 10:55:00
3:55 AM,41.0,37.0,86,30.25,10.0,ENE,8.1,-,N/A,,Clear,70,2013-02-02 11:55:00
4:55 AM,42.1,37.0,82,30.24,10.0,East,6.9,-,N/A,,Clear,80,2013-02-02 12:55:00
5:55 AM,39.0,36.0,89,30.22,10.0,East,5.8,-,N/A,,Clear,80,2013-02-02 13:55:00
6:55 AM,39.0,36.0,89,30.22,10.0,East,5.8,-,N/A,,Clear,90,2013-02-02 14:55:00
7:55 AM,36.0,33.1,89,30.24,10.0,Calm,Calm,-,N/A,,Clear,0,2013-02-02 15:55:00
8:55 AM,41.0,37.9,89,30.25,10.0,Calm,Calm,-,N/A,,Clear,0,2013-02-02 16:55:00
9:55 AM,48.0,39.9,74,30.25,10.0,Calm,Calm,-,N/A,,Clear,0,2013-02-02 17:55:00
10:55 AM,52.0,42.1,69,30.25,10.0,Calm,Calm,-,N/A,,Clear,0,2013-02-02 18:55:00
11:55 AM,53.1,42.1,66,30.25,10.0,Calm,Calm,-,N/A,,Clear,0,2013-02-02 19:55:00
12:55 PM,55.9,43.0,62,30.25,10.0,WSW,4.6,-,N/A,,Clear,250,2013-02-02 20:55:00
1:55 PM,54.0,41.0,62,30.25,10.0,SW,6.9,-,N/A,,Clear,220,2013-02-02 21:55:00
2:55 PM,52.0,41.0,66,30.25,10.0,WSW,5.8,-,N/A,,Clear,240,2013-02-02 22:55:00
3:55 PM,53.1,39.9,61,30.25,10.0,WSW,3.5,-,N/A,,Clear,240,2013-02-02 23:55:00
4:55 PM,51.1,39.0,63,30.24,10.0,WSW,3.5,-,N/A,,Clear,240,2013-02-03 00:55:00
5:55 PM,44.1,39.0,82,30.24,10.0,Calm,Calm,-,N/A,,Clear,0,2013-02-03 01:55:00
6:55 PM,44.1,39.0,82,30.25,10.0,Calm,Calm,-,N/A,,Clear,0,2013-02-03 02:55:00
7:55 PM,48.0,44.1,86,30.27,10.0,SW,13.8,20.7,N/A,,Scattered Clouds,220,2013-02-03 03:55:00
8:35 PM,48.2,44.6,87,30.27,10.0,SW,12.7,-,N/A,,Mostly Cloudy,230,2013-02-03 04:35:00
8:55 PM,48.0,44.1,86,30.27,10.0,SSW,10.4,-,N/A,,Overcast,210,2013-02-03 04:55:00
9:55 PM,48.0,43.0,83,30.30,10.0,SW,9.2,-,N/A,,Overcast,220,2013-02-03 05:55:00
10:55 PM,48.0,44.1,86,30.28,10.0,South,8.1,-,N/A,,Overcast,170,2013-02-03 06:55:00
11:41 PM,48.2,44.6,87,30.27,10.0,South,5.8,-,N/A,,Overcast,170,2013-02-03 07:41:00
11:55 PM,48.0,44.1,86,30.27,10.0,South,4.6,-,N/A,,Overcast,180,2013-02-03 07:55:00